DW6062 Weather Reports


time (UTC)temp
F
wind
direction
speed
knots
gust
knots
rain 1hr
in
rain 24hr
in
rain mn
in
humidity
%
barometer
mb
20260508055611 46 229 2.6 5.2 0.01 0.01 0.01 75 1014.2
20260508055111 47 222 1.7 4.3 0.01 0.01 0.01 74 1014.3
20260508054112 47 274 2.6 7.0 0.00 0.00 0.00 72 1014.3
20260508053111 48 193 0.0 0.0 0.00 0.00 0.00 68 1014.4
20260508052611 48 193 0.0 0.0 0.00 0.00 0.00 68 1014.3
20260508051611 48 231 1.7 4.3 0.00 0.00 0.00 67 1014.1
20260508051112 48 270 2.6 5.2 0.00 0.00 0.00 68 1014.0
20260508050611 47 198 0.9 4.3 0.00 0.00 0.00 67 1014.1
20260508050111 47 208 0.9 1.7 0.00 0.00 0.00 67 1014.2
20260508045611 47 197 0.0 0.0 0.00 0.00 0.00 68 1014.1
20260508044611 47 194 0.0 0.0 0.00 0.00 0.00 66 1013.8
20260508044111 47 192 0.0 0.0 0.00 0.00 0.00 67 1013.9
20260508043611 47 183 0.0 0.0 0.00 0.00 0.00 67 1013.7
20260508043111 47 178 0.0 0.0 0.00 0.00 0.00 67 1013.9
20260508042611 47 188 0.0 0.0 0.00 0.00 0.00 67 1013.9
20260508041611 47 171 0.0 0.0 0.00 0.00 0.00 67 1013.7
20260508041111 47 190 0.0 0.0 0.00 0.00 0.00 67 1013.8
20260508040611 47 192 0.0 0.0 0.00 0.00 0.00 67 1013.9
20260508040112 47 168 0.0 0.0 0.00 0.00 0.00 67 1013.7
20260508035612 47 186 0.0 0.0 0.00 0.00 0.00 66 1014.0
20260508035111 47 187 0.0 0.0 0.00 0.00 0.00 65 1013.8
20260508034611 47 187 0.0 0.0 0.00 0.00 0.00 65 1013.9
20260508034111 47 193 0.0 0.0 0.00 0.00 0.00 64 1013.8
20260508033611 47 200 0.0 0.0 0.00 0.00 0.00 64 1014.0
20260508033111 48 189 0.0 0.0 0.00 0.00 0.00 63 1014.1
20260508032611 48 202 0.0 0.0 0.00 0.00 0.00 63 1013.9
20260508032111 48 213 0.0 0.0 0.00 0.00 0.00 63 1014.1
20260508031611 48 199 0.0 0.0 0.00 0.00 0.00 63 1014.1
20260508031111 48 200 0.0 0.0 0.00 0.00 0.00 62 1014.4
20260508030111 49 201 0.0 0.9 0.00 0.00 0.00 62 1014.4
20260508025611 49 209 0.9 0.9 0.00 0.00 0.00 62 1014.2
20260508025111 49 210 0.0 0.0 0.00 0.00 0.00 60 1014.3
20260508023611 49 195 0.9 2.6 0.00 0.00 0.00 58 1014.4
20260508023111 50 217 0.9 2.6 0.00 0.00 0.00 58 1014.4
20260508021611 50 208 1.7 2.6 0.00 0.00 0.00 58 1014.3
20260508021111 50 229 1.7 5.2 0.00 0.00 0.00 58 1014.1
20260508020611 50 207 0.9 2.6 0.00 0.00 0.00 57 1014.0
20260508020111 50 204 1.7 2.6 0.00 0.00 0.00 57 1014.0
20260508015610 50 185 0.9 6.1 0.00 0.00 0.00 56 1014.3
20260508015111 50 233 2.6 6.1 0.00 0.00 0.00 57 1014.1
20260508014111 51 198 0.9 4.3 0.00 0.00 0.00 54 1014.0
20260508013611 51 206 1.7 4.3 0.00 0.00 0.00 53 1014.2
20260508012611 51 239 1.7 7.0 0.00 0.00 0.00 52 1014.0
20260508012111 51 215 0.9 1.7 0.00 0.00 0.00 51 1013.7
20260508011111 51 190 1.7 2.6 0.00 0.00 0.00 51 1013.9
20260508010610 51 211 1.7 7.0 0.00 0.00 0.00 53 1013.7
20260508010111 51 199 0.0 1.7 0.00 0.00 0.00 55 1013.6
20260508004611 51 209 0.9 1.7 0.00 0.00 0.00 53 1013.5
20260508004110 51 204 0.9 0.9 0.00 0.00 0.00 52 1013.3
20260508003611 51 216 0.0 0.9 0.00 0.00 0.00 52 1013.3
20260508003110 51 218 0.9 1.7 0.00 0.00 0.00 52 1013.1
20260508001110 51 202 0.9 0.9 0.00 0.00 0.00 50 1013.3
20260508000610 51 197 0.9 0.9 0.00 0.00 0.00 50 1013.3
20260508000110 52 195 0.0 0.0 0.00 0.00 0.00 49 1013.1
20260507235111 52 250 0.9 0.9 0.00 0.00 0.00 47 1012.9
20260507234610 52 222 0.9 0.9 0.00 0.00 0.00 45 1013.0
20260507234111 53 197 0.9 1.7 0.00 0.00 0.00 45 1012.9
20260507233611 53 178 0.0 2.6 0.00 0.00 0.00 45 1013.0
20260507232612 53 176 0.9 4.3 0.00 0.00 0.00 43 1012.9
20260507232111 53 192 0.9 2.6 0.00 0.00 0.00 44 1012.9
20260507231611 53 233 0.9 5.2 0.00 0.00 0.00 45 1013.1
20260507231111 54 212 1.7 7.0 0.00 0.00 0.00 44 1013.2
20260507230611 55 150 1.7 7.0 0.00 0.00 0.00 43 1013.0
20260507230112 55 203 0.9 2.6 0.00 0.00 0.00 42 1013.0
20260507225111 55 14 2.6 7.0 0.00 0.00 0.00 42 1012.8
20260507224611 56 37 1.7 7.0 0.00 0.00 0.00 41 1013.2
20260507224111 55 81 2.6 4.3 0.00 0.00 0.00 42 1013.3
20260507223611 54 72 1.7 5.2 0.00 0.00 0.00 43 1013.2
20260507222611 54 157 1.7 7.8 0.00 0.00 0.00 43 1013.2
20260507222111 55 128 4.3 7.8 0.00 0.00 0.00 43 1013.2
20260507221611 56 166 0.9 7.0 0.00 0.00 0.00 42 1013.3
20260507221111 55 45 3.5 6.1 0.00 0.00 0.00 42 1013.0
20260507220611 55 38 1.7 7.8 0.00 0.00 0.00 45 1013.2
20260507215611 55 87 0.9 8.7 0.00 0.00 0.00 44 1013.1
20260507215111 55 357 4.3 8.7 0.00 0.00 0.00 43 1013.0
20260507214611 54 201 1.7 2.6 0.00 0.00 0.00 45 1013.0
20260507214111 54 201 1.7 10.4 0.00 0.00 0.00 46 1013.0
20260507213611 55 76 4.3 6.1 0.00 0.00 0.00 42 1013.0
20260507212611 57 296 4.3 7.0 0.00 0.00 0.00 40 1013.1
20260507212111 56 13 2.6 6.1 0.00 0.00 0.00 43 1012.8
20260507211111 56 189 0.9 5.2 0.00 0.00 0.00 42 1012.9
20260507210611 55 229 1.7 5.2 0.00 0.00 0.00 45 1013.1
20260507210111 55 239 3.5 7.0 0.00 0.00 0.00 43 1013.2
20260507205611 56 25 1.7 7.0 0.00 0.00 0.00 42 1012.9
20260507205111 56 166 4.3 7.0 0.00 0.00 0.00 42 1012.9
20260507204611 56 251 3.5 10.4 0.00 0.00 0.00 43 1013.0
20260507204111 55 192 0.9 8.7 0.00 0.00 0.00 42 1013.1
20260507203611 57 218 2.6 4.3 0.00 0.00 0.00 42 1013.0
20260507202611 57 216 1.7 4.3 0.00 0.00 0.00 40 1012.9
20260507202111 57 43 4.3 8.7 0.00 0.00 0.00 41 1013.0
20260507201611 57 116 2.6 6.1 0.00 0.00 0.00 44 1012.7
20260507201111 56 265 4.3 7.0 0.00 0.00 0.00 45 1012.9
20260507200611 56 188 3.5 7.8 0.00 0.00 0.00 45 1012.7
20260507200111 56 219 5.2 10.4 0.00 0.00 0.00 44 1012.9
20260507195611 57 263 2.6 7.0 0.00 0.00 0.00 44 1013.0
20260507195111 55 173 1.7 7.0 0.00 0.00 0.00 49 1013.3
20260507194611 55 20 5.2 14.8 0.00 0.00 0.00 46 1013.3
20260507194111 55 222 4.3 13.0 0.00 0.00 0.00 46 1013.2
20260507193111 54 291 2.6 5.2 0.00 0.00 0.00 48 1013.3
20260507192612 55 239 2.6 7.8 0.00 0.00 0.00 48 1013.2
20260507192111 54 240 2.6 7.8 0.00 0.00 0.00 50 1013.4
20260507191611 55 237 2.6 7.8 0.00 0.00 0.00 48 1013.3
20260507191111 56 232 1.7 7.8 0.00 0.00 0.00 48 1013.4
20260507190611 56 130 1.7 7.0 0.00 0.00 0.00 48 1013.5
20260507190111 55 244 2.6 7.0 0.00 0.00 0.00 50 1013.2
20260507185111 53 204 2.6 6.1 0.00 0.00 0.00 51 1013.3
20260507184611 54 345 2.6 7.0 0.00 0.00 0.00 53 1013.5
20260507184111 56 87 1.7 6.1 0.00 0.00 0.00 49 1013.4
20260507183611 54 273 2.6 6.1 0.00 0.00 0.00 50 1013.4
20260507183111 52 348 5.2 8.7 0.00 0.00 0.00 53 1013.6
20260507182111 53 236 1.7 5.2 0.00 0.00 0.00 55 1013.6
20260507181611 54 216 2.6 8.7 0.00 0.00 0.00 54 1013.5
20260507181111 54 275 2.6 8.7 0.00 0.00 0.00 52 1013.4
20260507180611 55 291 2.6 6.1 0.00 0.00 0.00 51 1013.5
20260507175612 53 201 2.6 7.0 0.00 0.00 0.00 54 1013.7
20260507175112 53 227 3.5 6.1 0.00 0.00 0.00 54 1013.7
20260507174612 54 160 3.5 7.8 0.00 0.00 0.00 52 1013.5
20260507174112 54 350 4.3 7.0 0.00 0.00 0.00 52 1013.6
20260507173612 53 179 2.6 6.1 0.00 0.00 0.00 52 1013.7
20260507173112 53 213 4.3 7.8 0.00 0.00 0.00 51 1013.8
20260507172612 53 337 2.6 8.7 0.00 0.00 0.00 51 1013.9
20260507171612 53 275 3.5 10.4 0.00 0.00 0.00 51 1013.8
20260507170612 54 346 2.6 5.2 0.00 0.00 0.00 47 1013.8
20260507170112 54 354 2.6 7.0 0.00 0.00 0.00 50 1013.9
20260507165611 53 322 2.6 13.0 0.00 0.00 0.00 52 1013.8
20260507165113 53 209 4.3 8.7 0.00 0.00 0.00 52 1013.9
20260507164612 54 216 1.7 7.0 0.00 0.00 0.00 50 1014.0
20260507164112 53 247 2.6 6.1 0.00 0.00 0.00 50 1014.0
20260507163612 54 305 1.7 7.0 0.00 0.00 0.00 49 1013.9
20260507162612 53 191 4.3 8.7 0.00 0.00 0.00 53 1014.2
20260507160112 53 353 2.6 5.2 0.00 0.01 0.00 51 1014.0
20260507155112 53 218 2.6 7.8 0.00 0.01 0.00 50 1013.8
20260507154612 53 234 3.5 7.8 0.00 0.02 0.00 53 1013.8
20260507154111 52 239 5.2 7.0 0.00 0.02 0.00 53 1014.0
20260507153112 52 50 4.3 7.0 0.00 0.02 0.00 56 1013.9
20260507152612 52 206 1.7 5.2 0.00 0.02 0.00 56 1013.8
20260507152112 52 143 2.6 6.1 0.00 0.02 0.00 56 1013.9
20260507151612 52 336 2.6 6.1 0.00 0.02 0.00 57 1013.6
20260507151112 52 226 2.6 5.2 0.00 0.03 0.00 58 1013.8
20260507150612 51 120 4.3 7.0 0.00 0.04 0.00 59 1013.9
20260507150112 51 199 2.6 5.2 0.00 0.04 0.00 59 1013.9
20260507145611 51 233 1.7 4.3 0.00 0.05 0.00 59 1013.9
20260507144612 51 338 1.7 6.1 0.00 0.07 0.00 61 1013.8
20260507144112 50 190 1.7 7.0 0.00 0.07 0.00 63 1014.0
20260507143612 50 237 2.6 6.1 0.00 0.08 0.00 64 1014.0
20260507142112 49 195 3.5 7.8 0.00 0.08 0.00 64 1014.0
20260507141611 49 215 1.7 2.6 0.00 0.09 0.00 65 1013.9
20260507141112 48 218 1.7 5.2 0.00 0.10 0.00 66 1013.9
20260507140112 48 164 2.6 5.2 0.00 0.11 0.00 67 1014.0
20260507135612 47 227 4.3 7.8 0.00 0.13 0.00 68 1014.2
20260507134612 46 183 1.7 5.2 0.00 0.16 0.00 69 1014.2
20260507134112 46 209 0.9 5.2 0.00 0.17 0.00 69 1014.1
20260507133112 46 217 2.6 4.3 0.00 0.20 0.00 71 1014.2
20260507132612 45 230 1.7 5.2 0.00 0.23 0.00 72 1014.2
20260507132111 45 185 0.9 5.2 0.00 0.25 0.00 71 1014.2
20260507131612 45 230 2.6 4.3 0.00 0.26 0.00 72 1014.2
20260507131112 44 242 1.7 5.2 0.00 0.28 0.00 72 1014.2
20260507130611 44 219 1.7 6.1 0.00 0.29 0.00 73 1014.4
20260507130112 44 210 1.7 6.1 0.00 0.30 0.00 73 1014.2
20260507125612 44 191 0.9 4.3 0.00 0.31 0.00 73 1014.4
20260507125112 44 228 1.7 2.6 0.00 0.32 0.00 74 1014.3
20260507124112 43 197 2.6 5.2 0.00 0.35 0.00 74 1014.1
20260507123612 43 223 1.7 5.2 0.00 0.38 0.00 74 1014.2
20260507123112 43 214 1.7 5.2 0.00 0.40 0.00 75 1014.1
20260507122611 43 239 2.6 6.1 0.00 0.43 0.00 74 1014.2
20260507122112 43 243 2.6 7.0 0.00 0.46 0.00 75 1014.3
20260507121612 43 222 2.6 6.1 0.00 0.49 0.00 75 1014.2
20260507121112 42 199 0.9 1.7 0.00 0.52 0.00 76 1014.2
20260507120612 42 199 1.7 2.6 0.00 0.54 0.00 76 1014.3
20260507120111 42 209 1.7 2.6 0.00 0.57 0.00 76 1014.2
20260507115611 42 188 0.9 2.6 0.00 0.58 0.00 76 1014.1
20260507115112 42 196 1.7 6.1 0.00 0.61 0.00 77 1014.1
20260507114612 41 257 4.3 6.1 0.00 0.61 0.00 77 1014.0
20260507114111 41 212 0.9 4.3 0.00 0.62 0.00 78 1014.1
20260507113611 41 223 1.7 4.3 0.00 0.62 0.00 79 1014.0
20260507113111 40 213 0.9 1.7 0.00 0.62 0.00 80 1014.1
20260507112612 40 209 0.9 2.6 0.00 0.62 0.00 80 1013.8
20260507111612 40 221 1.7 2.6 0.00 0.63 0.00 80 1013.8
20260507111112 40 225 0.9 1.7 0.00 0.64 0.00 80 1013.8
20260507110611 40 193 0.9 2.6 0.00 0.64 0.00 81 1013.7
20260507110112 40 172 0.9 2.6 0.00 0.65 0.00 81 1014.0
20260507105612 40 236 2.6 4.3 0.00 0.66 0.00 81 1013.7
20260507105112 40 194 0.9 2.6 0.00 0.66 0.00 81 1013.8
20260507104611 40 183 1.7 1.7 0.00 0.67 0.00 81 1013.6
20260507104111 40 203 0.9 1.7 0.00 0.68 0.00 81 1013.5
20260507103612 40 217 0.9 1.7 0.00 0.69 0.00 81 1013.6
20260507103112 40 173 0.9 1.7 0.00 0.69 0.00 81 1013.6
20260507102612 40 201 0.9 1.7 0.00 0.70 0.00 81 1013.6
20260507102112 40 208 0.9 1.7 0.00 0.71 0.00 81 1013.3
20260507101611 40 205 0.0 1.7 0.00 0.72 0.00 81 1013.4
20260507101111 40 204 0.9 1.7 0.00 0.72 0.00 81 1013.3
20260507100612 40 200 0.9 1.7 0.00 0.74 0.00 81 1013.4
20260507100112 40 219 0.0 1.7 0.00 0.75 0.00 81 1013.3
20260507095612 40 201 0.9 1.7 0.00 0.75 0.00 81 1013.4
20260507095112 40 197 0.9 1.7 0.00 0.76 0.00 81 1013.1
20260507094612 41 209 1.7 1.7 0.00 0.78 0.00 81 1013.3